Regional Weather Roundup
Issued by NWS

Home | Current Version | Previous Version | Graphics & Text | Print | Product List | Glossary On
Versions: 1 2 3 4 5 6 7 8 9 10 11 12 13 14 15 16 17 18 19 20 21 22 23 24 25 26 27 28 29 30 31 32 33 34 35 36 37 38 39 40 41 42 43 44 45 46 47 48 49 50
000
ASUS45 KTFX 031719
RWRMT
MONTANA HOURLY WEATHER ROUNDUP
NATIONAL WEATHER SERVICE GREAT FALLS MT
1019 AM MST TUE MAR 3 2015

NOTE: "FAIR" INDICATES FEW OR NO CLOUDS BELOW 12000 FEET WITH NO
SIGNIFICANT WEATHER AND/OR OBSTRUCTIONS TO VISIBILITY.

* THESE STATIONS ARE NOT UNDER NWS QUALITY CONTROL. THEY DO NOT
   REPORT WEATHER SUCH AS PRECIPITATION OR FOG.

MTZ001>007-043-031800-
WEST OF THE DIVIDE
CITY           SKY/WX    TMP DP  RH WIND       PRES   REMARKS
KALISPELL      SUNNY     19   0  43 N7        30.16F WCI  10
MISSOULA       PTCLDY    19   0  43 E16       30.16F WCI   4
BUTTE          SUNNY      7  -4  60 CALM      30.00F
MULLAN PASS    FOG        9   9 100 VRB3      29.93R
* ANACONDA     SUNNY      9  -6  50 NW3        N/A
* ESSEX        N/A        8  -4  58 SE5        N/A   WCI  -1
* EUREKA APT   SUNNY     18   1  47 CALM      30.21S
* HAMILTON APT PTCLDY    21   0  40 SE3       30.12S
* LIBBY APT    SUNNY     18   7  62 CALM      30.21S
* LINCOLN      N/A        8  -6  52 E3         N/A
* LOOKOUT PASS N/A       15   7  70 SE2        N/A
* POLSON       N/A       17   3  54 NE2        N/A
* RONAN APT    SUNNY     19   3  49 S6         N/A   WCI  11
* SEELEY LAKE  N/A       14  -6  40 SW2        N/A
* THOMP F APT  N/A       10  -6  48 NW7G24     N/A   WCI  -1
* YAAK HILL    N/A       16   6  64 S1         N/A
$$

MTZ008-052>055-031800-
SOUTHWEST MONTANA
CITY           SKY/WX    TMP DP  RH WIND       PRES   REMARKS
BOZEMAN        CLOUDY    10   0  64 S12       30.08S WCI  -5
DILLON         PTSUNNY   10   0  64 NE14      30.00R WCI  -6
* W YELLOWSTON SUNNY      7  -7  52 N4G15      N/A
* THREE FORKS  SUNNY     14  -6  40 NE7        N/A   WCI   4
* TWIN BRIDGES SUNNY     12  -6  44 NW16G21    N/A   WCI  -5
* BOULDER HILL N/A        1  -4  79 N9         N/A   WCI -14
* MONIDA PASS  N/A        5  -3  69 NW15G24    N/A   WCI -13
* RAYNOLDS PAS N/A       -1  -1 100 N17G22     N/A   WCI -22
* WHITEHALL    N/A       13  -3  48 E4G17      N/A
* WISE RIVER   N/A        8  -7  50 S2         N/A
$$

MTZ009>010-012-014-046-048-049-054-031800-
EAST SLOPES AND CENTRAL MONTANA
CITY           SKY/WX    TMP DP  RH WIND       PRES   REMARKS
CUT BANK       SUNNY      7  -2  66 CALM      30.13F
GREAT FALLS    SUNNY      7   1  76 SW8       30.16F WCI  -6
HELENA         SUNNY     12   0  58 VRB3      30.14F
MALMSTROM AFB  SUNNY     10   3  73 SW12      30.19F WCI  -5
* CONRAD       SUNNY      7   0  73 CALM       N/A
* DEARBORN     N/A        9   1  70 N/A        N/A
* EAST GLACIER N/A       -2 -10  68 E2         N/A
* MONARCH      N/A        1  -4  79 W1G6       N/A
* PENDROY      N/A        5  -2  72 SW5        N/A   WCI  -5
* ROGERS PASS  N/A        4  -3  72 SE4        N/A
* SWEET GRASS  N/A        4  -6  63 NW10       N/A   WCI -11
* WHITE SULPH  N/A        8  -8  47 NW8        N/A   WCI  -4
$$

MTZ011-013-016-021-035-040-045-047-050-051-031800-
NORTH CENTRAL MONTANA
CITY           SKY/WX    TMP DP  RH WIND       PRES   REMARKS
HAVRE          SUNNY     10  -2  58 W14       30.22F WCI  -6
LEWISTOWN      SUNNY      3  -4  72 W7        30.10F WCI  -9
* N BAR RANCH  SUNNY      5  -9  52 NW18G25   30.05S WCI -15
* CHINOOK      SUNNY      9  -6  50 W21G26    30.22F WCI -11
* FORT BENTON  SUNNY     12  -2  53 SW13G21   30.23F WCI  -3
* CHESTER      N/A        8  -5  55 NW13G19    N/A   WCI  -8
* DENTON       N/A        9  -3  58 W12G17     N/A   WCI  -6
* GEYSER       N/A        8  -4  58 W13G18     N/A   WCI  -8
* JUDITH GAP   N/A        2  -3  79 N16G21     N/A   WCI -17
* LOMA         N/A       11  -1  58 W10G17     N/A   WCI  -2
$$

MTZ017>020-022>027-061-062-031800-
NORTHEAST MONTANA
CITY           SKY/WX    TMP DP  RH WIND       PRES   REMARKS
GLASGOW        LGT SNOW  10  -6  48 NW21G29   30.15S VSB 2 1/2 WCI  -9
GLENDIVE       CLOUDY    10  -2  58 W22       30.11F WCI -10
JORDAN         SUNNY      9  -4  55 NW24G32   30.15F WCI -12
SIDNEY         PTSUNNY    9  -4  55 NW21      30.15S WCI -11
WOLF POINT     CLOUDY    10  -6  48 NW20      30.16F WCI  -9
* BEAVER HILL  N/A        6  -5  60 NW29G37    N/A   WCI -17
* CIRCLE       N/A       10  -2  58 NW14G26    N/A   WCI  -6
* LINDSAY DVD  N/A        5  -1  76 NW22G29    N/A   WCI -16
* NAVAJO       N/A        1  -9  62 NW28G39    N/A   WCI -24
* PLENTYWOOD A SUNNY      1  -9  62 NW26G32   30.05F WCI -23
* POPLAR APT   SUNNY      9  -6  50 W18G25    30.14F WCI  -9
* SACO         N/A        7  -7  52 W20G26     N/A   WCI -13
* SCOBEY APT   SUNNY      3 -11  51 NW28       N/A   WCI -21
$$

MTZ028>042-056>058-031800-
SOUTHCENTRAL AND SOUTHEAST MONTANA
CITY           SKY/WX    TMP DP  RH WIND       PRES   REMARKS
BAKER          CLOUDY     9  -2  61 NW21G31   30.06F WCI -11
BILLINGS       PTSUNNY   12   0  58 CALM      30.13S
LIVINGSTON     CLOUDY     9  -4  55 NW8       30.06S WCI  -3
MILES CITY     PTSUNNY   10  -4  53 NW24G30   30.15F WCI -10
* BIG TIMBER A PTCLDY    10  -2  58 S5        30.07F WCI   1
* FORSYTH APT  PTCLDY    12   0  58 W15G24    30.16F WCI  -4
* LAUREL APT   PTCLDY    12  -6  44 W7         N/A   WCI   1
* ROUNDUP APT  PTCLDY    14 -13  28 NW11       N/A   WCI   1
* ALZADA       N/A       11   3  70 NW14       N/A   WCI  -5
* HYSHAM       N/A       10  -1  61 NW8G17     N/A   WCI  -2
* REED POINT   N/A       14  -1  51 W4G11      N/A
$$

REGIONAL REPORTS...DAKOTAS
CITY           SKY/WX    TMP DP  RH WIND       PRES   REMARKS
WILLISTON      CLOUDY     5  -6  60 NW22G32   30.10F WCI -16
DICKINSON      PTCLDY     9  -6  50 NW31G39   29.99R WCI -14
BEACH          LGT RAIN   7  -2  66 NW25G35   30.06F WCI -15
CROSBY         SUNNY      0  -8  68 NW24G35   30.07S WCI -24
TIOGA          PTSUNNY    0  -8  68 NW29G38   30.05S WCI -26
WATFORD CITY   SUNNY      5  -4  66 NW18G30   30.07S WCI -15
BISMARCK       PTSUNNY   10  -6  48 NW28G36   30.05R WCI -12
GRAND FORKS    CLOUDY    10   0  64 NW23G33   29.89R WCI -10
FARGO          LGT SNOW  12   1  61 NW26G38   29.89R WCI  -8
BUFFALO SD     PTCLDY    12  -2  53 NW32G38   29.94S WCI -10
RAPID CITY     CLOUDY    14   1  56 N25G36    30.02R WCI  -5
$$

REGIONAL REPORTS...WYOMING/IDAHO/WASHINGTON
CITY           SKY/WX    TMP DP  RH WIND       PRES   REMARKS
GILLETTE       LGT SNOW  10   3  73 N14       29.99F VSB 1 1/4 WCI  -6
SHERIDAN       CLOUDY     9   1  70 NW20      30.07S WCI -10
CODY           CLOUDY     7   1  76 N15G22    29.99S WCI -10
YELLOWSTONE LA PTCLDY     9  -4  55 VRB3      29.76S
SALMON         CLOUDY    21   0  40 N8        30.03S WCI  11
MULLAN PASS    FOG        9   9 100 VRB3      29.93S
SAND POINT     PTSUNNY   28   9  45 NE8       30.20S WCI  20
SPOKANE        SUNNY     27  14  58 NE7       30.17R WCI  19
$$

REGIONAL REPORTS...ALBERTA
CITY           SKY/WX    TMP DP  RH WIND       PRES   REMARKS
CALGARY        SUNNY      9  -4  55 W8        30.13F WCI  -3
LETHBRIDGE     SUNNY     10  -4  53 W9        30.19F WCI  -3
MEDICINE HAT   SUNNY     10   0  64 W9        30.22F WCI  -3
EDMONTON       SUNNY      3  -9  57 W8        30.18S WCI -10
WATERTON GATE  N/A        1  -4  79 NE2        N/A
CARDSTON       N/A        3  -4  72 SE3        N/A
MILK RIVER     N/A        3  -6  66 NW10       N/A   WCI -12
$$

REGIONAL REPORTS...SASKATCHEWAN
CITY           SKY/WX    TMP DP  RH WIND       PRES   REMARKS
SWIFT CURRENT  SUNNY      0  -9  65 NW24G30   30.06F WCI -24
MOOSE JAW      SNOW      -2 -11  65 NW25G31   30.09F WCI -27
REGINA         SNOW      -4 -11  71 NW24      30.04F WCI -29
VAL MARIE      N/A        5  -4  66 NW24G30    N/A   WCI -17
ASSINIBOIA     N/A        0  -9  65 NW23       N/A   WCI -23
CORONACH       N/A        1  -6  72 NW26G33    N/A   WCI -23

$$



USA.gov is the U.S. government's official web portal to all federal, state and local government web resources and services.